Zurück zum Katalog

FLOCK 4BE 2

AktivWissenschaftSSO
NORAD 60511·PAYLOAD·🇺🇸 United States

Gestartet Aug 16, 2024 von Vandenberg Space Force Base

Loading…

Nächste Überflüge (nächste 24 Stunden)

TLE

AktuellSource: Space-Track

Epoche: Sep 14, 2026, 04:37 UTC

1 60511U 24149AV  26257.19241788  .00087883  00000-0  88725-3 0  9992
2 60511  97.3776 347.7477 0003296 276.9236  83.1649 15.65062823116364

Verfolge FLOCK 4BE 2 in Echtzeit mit AllMySat

Download on the App Store